This is the latest recevied weather packets stored in our database for station/object KD9ZDW. If no packets are shown the sender has not sent any weather packets the latest 1 day(s).
| Time | Temp. | Humidity | Pressure | Rain* | Wind** | Luminosity | Snow |
|---|---|---|---|---|---|---|---|
| 1778010350 | 8.89° C | 91% | 1010.9 hPa | 0 mm | 0.89 m/s, 349° | 60 W/m² | - |
| 1778010046 | 9.44° C | 91% | 1011 hPa | 3.05 mm | 0.45 m/s, 42° | 58 W/m² | - |
| 1778009743 | 8.89° C | 91% | 1011.2 hPa | 4.83 mm | 0.45 m/s, 281° | 47 W/m² | - |
| 1778009440 | 9.44° C | 91% | 1011.2 hPa | 3.05 mm | 0.45 m/s, 269° | 51 W/m² | - |
| 1778009139 | 9.44° C | 91% | 1010.9 hPa | 3.05 mm | 0 m/s | 61 W/m² | - |
| 1778008836 | 9.44° C | 90% | 1011.1 hPa | 3.05 mm | 0 m/s | 56 W/m² | - |
| 1778008534 | 9.44° C | 90% | 1010.8 hPa | 3.05 mm | 0.45 m/s, 276° | 64 W/m² | - |
| 1778008232 | 9.44° C | 90% | 1010.9 hPa | 3.05 mm | 0.45 m/s, 246° | 65 W/m² | - |
| 1778007936 | 9.44° C | 89% | 1010.9 hPa | 1.27 mm | 0.45 m/s, 259° | 63 W/m² | - |
| 1778007628 | 9.44° C | 89% | 1010.8 hPa | 1.78 mm | 0.89 m/s, 327° | 86 W/m² | - |
| 1778007325 | 9.44° C | 89% | 1010.9 hPa | 1.78 mm | 0.45 m/s, 269° | 61 W/m² | - |
| 1778007021 | 10° C | 88% | 1011 hPa | 1.78 mm | 0.45 m/s, 301° | 52 W/m² | - |
| 1778006718 | 10° C | 88% | 1011.1 hPa | 1.27 mm | 0.45 m/s, 238° | 42 W/m² | - |
| 1778006415 | 10° C | 87% | 1011 hPa | 1.27 mm | 0.45 m/s, 294° | 68 W/m² | - |
| 1778006112 | 10° C | 86% | 1011.1 hPa | 1.78 mm | 0 m/s | 85 W/m² | - |
| 1778005809 | 10° C | 85% | 1011.3 hPa | 1.78 mm | 0 m/s | 77 W/m² | - |
| 1778005506 | 10° C | 86% | 1011.2 hPa | 1.27 mm | 0 m/s | 69 W/m² | - |
| 1778005202 | 10° C | 86% | 1011.1 hPa | 1.27 mm | 0 m/s | 87 W/m² | - |
| 1778004899 | 10° C | 85% | 1011 hPa | 0 mm | 0 m/s | 88 W/m² | - |
| 1778004596 | 10° C | 85% | 1011.2 hPa | 1.78 mm | 0.45 m/s, 304° | 110 W/m² | - |
| 1778004292 | 10° C | 84% | 1011.1 hPa | 1.78 mm | 0.89 m/s, 320° | 113 W/m² | - |
| 1778003989 | 10.56° C | 85% | 1010.7 hPa | 1.27 mm | 0 m/s | 103 W/m² | - |
| 1778003685 | 10° C | 84% | 1010.8 hPa | 3.05 mm | 0 m/s | 95 W/m² | - |
| 1778003382 | 10.56° C | 83% | 1011 hPa | 3.05 mm | 0.89 m/s, 200° | 95 W/m² | - |
| 1778003079 | 10.56° C | 83% | 1010.9 hPa | 1.27 mm | 0 m/s | 81 W/m² | - |
* Rain latest hour (hover to see other rain measurements)
** Current wind speed in m/s (hover to see current wind gust speed)